Location: Gälforsberget
(66.6500°N, 22.4167°E)
Time: 11:04:02
(UTC+00:00)

Dummy Sat-02 - Pass Details

Date: 11 April 2026
Orbit: 472 x 484 km, 86.3° (Epoch: 10 May)

Event Time Altitude Azimuth Distance (km) Brightness Sun altitude
Exits shadow 20:13:58 11° 182° (S) 1,618 6.7 -10.8°
Maximum altitude 20:17:28 80° 97° (E) 498 4.5 -11.0°
Drops below altitude 10° 20:21:07 10° 10° (N) 1,671 8.0 -11.2°
Sets 20:23:12 0° 9° (N) 2,553 9.0 -11.3°
